Total_Precipitation_Accumulation
0.87 1.05 0.91 0.61 0.49 0.42 0.34 0.30 0.24 0.17 0.15 0.18 0.15 0.09 0.04 0.05 0.06 0.05 0.04 0.05 0.06 0.06 0.08 0.12 0.12 0.13 0.14 0.19 0.23 0.27 0.32 0.45 0.55 0.59 0.65 0.66 0.49 0.45 0.49 0.47 0.41 0.42 0.44 0.44
0.93 0.78 0.44 0.34 0.37 0.44 0.43 0.38 0.27 0.19 0.15 0.19 0.17 0.10 0.05 0.05 0.05 0.05 0.05 0.05 0.05 0.05 0.08 0.14 0.17 0.16 0.13 0.16 0.19 0.23 0.27 0.35 0.45 0.48 0.57 0.67 0.60 0.52 0.53 0.49 0.45 0.44 0.44 0.42
0.78 0.46 0.29 0.37 0.48 0.58 0.52 0.41 0.29 0.27 0.22 0.21 0.21 0.16 0.07 0.05 0.04 0.04 0.04 0.04 0.04 0.04 0.06 0.12 0.16 0.18 0.18 0.16 0.17 0.20 0.24 0.30 0.40 0.49 0.59 0.71 0.81 0.68 0.61 0.55 0.50 0.49 0.47 0.46
0.61 0.34 0.36 0.45 0.48 0.50 0.47 0.29 0.27 0.33 0.46 0.44 0.31 0.30 0.10 0.05 0.05 0.04 0.03 0.03 0.03 0.04 0.05 0.09 0.14 0.17 0.19 0.19 0.19 0.21 0.26 0.29 0.33 0.43 0.54 0.59 0.67 0.64 0.49 0.43 0.44 0.45 0.44 0.44
0.72 0.36 0.39 0.46 0.35 0.36 0.36 0.26 0.32 0.39 0.55 0.54 0.35 0.36 0.14 0.06 0.07 0.05 0.02 0.02 0.03 0.03 0.04 0.06 0.10 0.14 0.19 0.22 0.22 0.22 0.29 0.32 0.32 0.35 0.43 0.52 0.60 0.61 0.59 0.50 0.46 0.47 0.47 0.44
0.55 0.40 0.41 0.36 0.27 0.35 0.43 0.50 0.60 0.65 0.86 0.87 0.30 0.25 0.17 0.12 0.10 0.07 0.04 0.03 0.04 0.04 0.05 0.06 0.10 0.15 0.20 0.25 0.26 0.28 0.29 0.31 0.32 0.36 0.40 0.46 0.53 0.59 0.66 0.62 0.54 0.50 0.51 0.51
0.66 0.50 0.45 0.39 0.48 0.57 0.77 1.12 1.56 1.62 1.43 0.74 0.16 0.16 0.19 0.13 0.11 0.10 0.09 0.06 0.05 0.06 0.07 0.07 0.08 0.14 0.20 0.23 0.25 0.28 0.30 0.33 0.34 0.36 0.39 0.41 0.45 0.50 0.55 0.61 0.58 0.54 0.51 0.53
0.73 0.61 0.43 0.41 0.55 0.72 0.75 0.92 1.17 1.15 0.74 0.32 0.15 0.16 0.15 0.11 0.07 0.06 0.09 0.09 0.08 0.08 0.09 0.10 0.08 0.09 0.14 0.19 0.21 0.25 0.28 0.29 0.35 0.37 0.38 0.40 0.43 0.46 0.45 0.51 0.57 0.56 0.51 0.51
0.77 0.55 0.29 0.29 0.35 0.51 0.73 0.70 0.56 0.75 0.57 0.42 0.27 0.16 0.10 0.06 0.04 0.04 0.06 0.09 0.11 0.10 0.10 0.10 0.09 0.09 0.11 0.13 0.16 0.21 0.26 0.28 0.30 0.35 0.41 0.42 0.42 0.44 0.42 0.42 0.48 0.53 0.50 0.47
0.93 0.74 0.38 0.34 0.45 0.51 0.58 0.69 0.78 1.08 0.99 0.59 0.28 0.16 0.16 0.10 0.07 0.06 0.07 0.10 0.13 0.12 0.11 0.11 0.10 0.10 0.11 0.13 0.14 0.19 0.25 0.28 0.32 0.32 0.37 0.43 0.44 0.45 0.46 0.45 0.44 0.47 0.52 0.52
0.89 0.99 0.68 0.57 0.66 0.60 0.53 0.77 1.04 1.08 0.85 0.63 0.36 0.24 0.22 0.17 0.12 0.11 0.11 0.12 0.15 0.16 0.16 0.16 0.12 0.10 0.10 0.13 0.15 0.18 0.25 0.27 0.32 0.35 0.36 0.39 0.46 0.49 0.52 0.55 0.54 0.52 0.55 0.60
0.84 1.12 0.89 0.64 0.50 0.40 0.48 0.59 0.82 1.08 0.84 0.53 0.43 0.27 0.18 0.17 0.14 0.13 0.12 0.13 0.14 0.16 0.17 0.16 0.13 0.13 0.13 0.15 0.17 0.20 0.27 0.30 0.32 0.33 0.37 0.41 0.47 0.51 0.55 0.59 0.62 0.63 0.63 0.65
1.20 1.50 1.29 0.95 0.75 0.66 0.68 0.60 0.62 0.80 0.87 0.68 0.56 0.30 0.14 0.14 0.13 0.13 0.12 0.13 0.13 0.12 0.12 0.13 0.14 0.15 0.19 0.19 0.19 0.24 0.30 0.31 0.34 0.34 0.36 0.40 0.47 0.55 0.62 0.65 0.66 0.67 0.69 0.73
1.47 1.57 1.20 0.95 0.73 0.70 0.72 0.58 0.55 0.78 1.09 0.73 0.40 0.25 0.16 0.15 0.16 0.15 0.14 0.13 0.12 0.09 0.10 0.13 0.15 0.16 0.20 0.22 0.22 0.27 0.30 0.31 0.36 0.39 0.40 0.46 0.53 0.58 0.66 0.70 0.70 0.71 0.73 0.75
1.49 1.47 0.79 0.49 0.35 0.35 0.43 0.41 0.43 0.57 0.62 0.56 0.35 0.27 0.27 0.25 0.24 0.21 0.19 0.16 0.13 0.12 0.13 0.16 0.18 0.18 0.22 0.25 0.26 0.31 0.37 0.39 0.46 0.54 0.54 0.54 0.58 0.60 0.59 0.63 0.67 0.69 0.73 0.76
1.30 1.34 0.79 0.56 0.35 0.32 0.34 0.29 0.31 0.37 0.37 0.34 0.27 0.29 0.27 0.24 0.21 0.17 0.16 0.18 0.18 0.16 0.16 0.16 0.20 0.22 0.24 0.30 0.37 0.43 0.50 0.53 0.56 0.62 0.65 0.60 0.57 0.58 0.61 0.60 0.60 0.64 0.68 0.69
1.16 1.24 1.16 0.79 0.43 0.56 0.60 0.38 0.34 0.35 0.36 0.34 0.35 0.32 0.26 0.23 0.20 0.19 0.18 0.19 0.22 0.20 0.18 0.18 0.21 0.27 0.30 0.35 0.45 0.53 0.55 0.56 0.60 0.62 0.66 0.69 0.61 0.57 0.59 0.58 0.55 0.54 0.56 0.59
0.87 1.00 1.37 1.07 0.80 1.02 0.55 0.27 0.29 0.30 0.32 0.33 0.33 0.30 0.28 0.26 0.23 0.20 0.19 0.20 0.23 0.24 0.24 0.24 0.25 0.28 0.34 0.40 0.48 0.55 0.59 0.62 0.64 0.65 0.62 0.63 0.57 0.51 0.53 0.56 0.52 0.47 0.46 0.51
0.50 0.87 1.44 1.32 1.03 0.61 0.23 0.17 0.26 0.33 0.38 0.36 0.33 0.29 0.27 0.24 0.20 0.20 0.22 0.22 0.24 0.25 0.23 0.22 0.23 0.25 0.31 0.37 0.42 0.46 0.51 0.54 0.57 0.59 0.55 0.54 0.49 0.47 0.51 0.55 0.51 0.46 0.43 0.44
0.50 0.83 1.50 1.45 1.15 0.58 0.24 0.14 0.19 0.31 0.42 0.32 0.30 0.30 0.30 0.30 0.44 0.33 0.28 0.23 0.20 0.19 0.18 0.18 0.19 0.19 0.22 0.27 0.30 0.32 0.36 0.40 0.44 0.46 0.48 0.53 0.48 0.43 0.47 0.52 0.49 0.47 0.45 0.46
0.83 1.24 1.48 1.24 1.09 0.50 0.21 0.13 0.18 0.46 0.56 0.35 0.31 0.33 0.37 0.46 0.53 0.37 0.28 0.24 0.22 0.21 0.20 0.19 0.19 0.22 0.25 0.29 0.30 0.31 0.29 0.32 0.34 0.35 0.38 0.48 0.51 0.47 0.45 0.46 0.48 0.48 0.48 0.49
0.72 0.96 1.00 0.99 1.18 0.63 0.22 0.21 0.39 0.56 0.38 0.32 0.32 0.35 0.43 0.41 0.31 0.27 0.26 0.26 0.23 0.22 0.22 0.24 0.25 0.30 0.34 0.34 0.30 0.27 0.26 0.25 0.26 0.30 0.33 0.38 0.46 0.45 0.45 0.45 0.45 0.45 0.48 0.52
0.57 0.72 0.76 0.74 0.69 0.42 0.31 0.36 0.40 0.38 0.38 0.38 0.46 0.47 0.45 0.42 0.36 0.34 0.30 0.27 0.25 0.25 0.26 0.27 0.28 0.33 0.37 0.33 0.27 0.26 0.25 0.23 0.23 0.27 0.31 0.35 0.41 0.41 0.41 0.43 0.44 0.43 0.45 0.51
0.39 0.41 0.54 0.52 0.40 0.31 0.28 0.25 0.25 0.28 0.35 0.40 0.42 0.45 0.47 0.50 0.45 0.39 0.37 0.36 0.33 0.31 0.31 0.31 0.29 0.32 0.36 0.31 0.27 0.25 0.23 0.22 0.23 0.28 0.33 0.38 0.42 0.44 0.43 0.41 0.41 0.42 0.48 0.62
0.34 0.34 0.40 0.40 0.31 0.27 0.26 0.26 0.27 0.29 0.28 0.28 0.29 0.34 0.45 0.52 0.48 0.40 0.39 0.42 0.43 0.41 0.39 0.37 0.36 0.37 0.36 0.29 0.24 0.25 0.27 0.28 0.30 0.33 0.38 0.42 0.46 0.47 0.46 0.43 0.43 0.47 0.51 0.74
0.31 0.34 0.38 0.38 0.30 0.30 0.31 0.27 0.27 0.30 0.30 0.30 0.32 0.34 0.36 0.40 0.42 0.38 0.39 0.42 0.42 0.43 0.44 0.41 0.38 0.34 0.31 0.28 0.25 0.26 0.28 0.32 0.34 0.35 0.37 0.43 0.49 0.52 0.50 0.47 0.47 0.49 0.52 0.62